Location: Julian California
(33.0790°N, 116.6010°W)
Time: 03:33:34
(UTC-07:00)

SL-16 R/B - Pass Details

Date: 14 June 2018
Orbit: 839 x 850 km, 71.0° (Epoch: 17 August)

Event Time Altitude Azimuth Distance (km) Brightness Sun altitude
Rises 21:05:21 0° 334° (NNW) 3,408 6.7 -12.8°
Reaches altitude 10° 21:07:50 10° 330° (NNW) 2,471 5.8 -13.2°
Maximum altitude 21:13:21 55° 254° (WSW) 1,010 2.8 -14.1°
Drops below altitude 10° 21:18:52 10° 177° (S) 2,462 4.2 -14.9°
Enters shadow 21:18:52 10° 177° (S) 2,462 4.2 -14.9°
